• Join FlightAware (Why Join?)
  • Login
  • US Flag 
12:46AM EDT


 

Airport Tracker/Info


-or-


 

Live Flight TrackerFlight Track Log ✈ ASQ5861 ✈ 27-Jul-2013 ✈ KORD - KAVP

Flight Track Log - Related Links

Times and Time Zones

All times are in EDT time to prevent confusion due to time zone crossing. See the ASQ5861 flight status page for this flight to view local times or setup timezone preferences in your user account.

Time Position Orientation Groundspeed Altitude Reporting Facility
EDT Latitude Longitude Course Direction KTS MPH feet Rate Location/Type
03:21PM 42.0000 -87.9333 90° East 160 184 2,000  Level Chicago TRACON
03:22PM 42.0500 -87.9000 26° Northeast 245 282 4,000 1,500 Climbing Chicago TRACON
03:23PM 42.0747 -87.8744 37° Northeast 256 295 4,600 720 Climbing Chicago Center
03:24PM 42.0572 -87.3204 78° East  Level FlightAware Approximate
03:24PM 42.1331 -87.8061 41° Northeast 270 311 5,200  Level Chicago Center
03:25PM 42.0798 -87.1734 78° East  Level FlightAware Approximate
03:25PM 42.1853 -87.7333 46° Northeast 273 314 7,600  Level Chicago Center
03:26PM 42.1000 -87.0261 90° East  Level FlightAware Approximate
03:26PM 42.1719 -87.6039 98° East 284 327 10,200  Level Chicago Center
03:27PM 42.1594 -87.4892 98° East 304 350 11,700 960 Climbing Chicago Center
03:28PM 42.1450 -87.3572 98° East 350 403 12,300 900 Climbing Chicago Center
03:29PM 42.1289 -87.2133 99° East 382 440 13,600 1,320 Climbing Chicago Center
03:30PM 42.1136 -87.0711 98° East 384 442 15,100 1,500 Climbing Chicago Center
03:31PM 42.1181 -86.8950 88° East 393 452 16,700 1,440 Climbing Chicago Center
03:32PM 42.1236 -86.7475 87° East 395 455 18,100 1,260 Climbing Chicago Center
03:33PM 42.1289 -86.6039 87° East 402 463 19,400 1,200 Climbing Chicago Center
03:34PM 42.1342 -86.4519 87° East 406 467 20,700 1,200 Climbing Chicago Center
03:35PM 42.1383 -86.2989 88° East 408 470 22,000 1,380 Climbing Chicago Center
03:36PM 42.1442 -86.1111 88° East 416 479 23,600 1,440 Climbing Chicago Center
03:37PM 42.1425 -85.9567 91° East 414 476 25,000 1,320 Climbing Chicago Center
03:38PM 42.1414 -85.7953 90° East 411 473 26,400 1,320 Climbing Chicago Center
03:39PM 42.1386 -85.6439 91° East 407 468 27,800 1,380 Climbing Chicago Center
03:40PM 42.1369 -85.4944 91° East 403 464 29,300 1,440 Climbing Chicago Center
03:41PM 42.1378 -85.3475 90° East 394 453 30,800 1,440 Climbing Chicago Center
03:42PM 42.1361 -85.2008 91° East 394 453 32,300 1,440 Climbing Chicago Center
03:43PM 42.1342 -85.0272 91° East 392 451 33,800 1,200 Climbing Chicago Center
03:44PM 42.1317 -84.8839 91° East 386 444 34,800 840 Climbing Chicago Center
03:45PM 42.1283 -84.7383 92° East 389 448 35,600 660 Climbing Chicago Center
03:46PM 42.1261 -84.5900 91° East 396 456 36,200 480 Climbing Chicago Center
03:47PM 42.1261 -84.4403 90° East 403 464 36,700 480 Climbing Chicago Center
03:48PM 42.1364 -84.3300 83° East 398 458 37,000 180 Climbing Cleveland Center
03:49PM 42.1542 -84.1686 81° East 422 486 37,000  Level Cleveland Center
03:50PM 42.1739 -83.9986 81° East 433 498 37,000  Level Cleveland Center
03:51PM 42.1914 -83.8286 82° East 446 513 37,000  Level Cleveland Center
03:52PM 42.2108 -83.6503 82° East 460 529 37,000  Level Cleveland Center
03:53PM 42.2281 -83.4714 83° East 475 547 37,000  Level Cleveland Center
03:54PM 42.2303 -83.2922 89° East 480 552 37,000  Level Cleveland Center
03:55PM 42.2297 -83.1294 90° East 474 545 37,000  Level Cleveland Center
03:56PM 42.2314 -82.9556 89° East 474 545 37,000  Level Cleveland Center
03:57PM 42.2331 -82.7733 89° East 474 545 37,000  Level Cleveland Center
03:58PM 42.2258 -82.5964 93° East 474 545 37,000  Level Cleveland Center
03:59PM 42.2161 -82.4222 94° East 474 545 37,000  Level Cleveland Center
04:00PM 42.2064 -82.2483 94° East 474 545 37,000  Level Cleveland Center
04:01PM 42.1944 -82.0544 95° East 469 540 37,000  Level Cleveland Center
04:02PM 42.1839 -81.8806 95° East 464 534 37,000  Level Cleveland Center
04:03PM 42.1733 -81.7067 95° East 464 534 37,000  Level Cleveland Center
04:04PM 42.1603 -81.5300 96° East 464 534 37,000  Level Cleveland Center
04:05PM 42.1511 -81.3561 94° East 464 534 37,000  Level Cleveland Center
04:06PM 42.1397 -81.1853 95° East 464 534 37,000  Level Cleveland Center
04:07PM 42.1281 -81.0142 95° East 464 534 37,000  Level Cleveland Center
04:08PM 42.1158 -80.8603 96° East 464 534 37,000  Level Cleveland Center
04:09PM 42.1039 -80.6867 95° East 464 534 37,000  Level Cleveland Center
04:10PM 42.0872 -80.5189 98° East 459 528 37,000  Level Cleveland Center
04:11PM 42.0703 -80.3483 98° East 466 536 37,000  Level Cleveland Center
04:12PM 42.0489 -80.1778 100° East 461 531 37,000  Level Cleveland Center
04:13PM 42.0314 -80.0072 98° East 466 536 37,000  Level Cleveland Center
04:14PM 42.0139 -79.8231 97° East 461 531 37,000  Level Cleveland Center
04:15PM 41.9958 -79.6556 98° East 461 531 37,000  Level Cleveland Center
04:16PM 41.9756 -79.4856 99° East 461 531 37,000 -360 Level Cleveland Center
04:17PM 41.9572 -79.3156 98° East 466 536 36,300 -900 Descending Cleveland Center
04:18PM 41.9383 -79.1400 98° East 466 536 35,300 -960 Descending Cleveland Center
04:19PM 41.9194 -78.9675 98° East 466 536 34,400 -960 Descending Cleveland Center
04:20PM 41.8961 -78.7950 100° East 466 536 33,400 -1,680 Descending Cleveland Center
04:21PM 41.8764 -78.6172 98° East 466 536 31,100 -2,460 Descending Cleveland Center
04:22PM 41.8544 -78.4394 99° East 471 542 28,500 -1,800 Descending Cleveland Center
04:23PM 41.8181 -78.2789 107° East 466 536 27,500 -1,260 Descending Cleveland Center
04:24PM 41.7775 -78.1328 110° East 441 507 26,100 -1,620 Descending Cleveland Center
04:25PM 41.7369 -77.9953 112° Southeast 414 476 24,300 -1,320 Descending Cleveland Center
04:26PM 41.7050 -77.7978 102° East 412 474 23,000 -600 Descending New York Center
04:27PM 41.6928 -77.6547 96° East 412 474 23,000  Level New York Center
04:28PM 41.6792 -77.4922 96° East 427 491 23,000  Level New York Center
04:29PM 41.6633 -77.3239 97° East 444 511 23,000 -420 Level New York Center
04:30PM 41.6478 -77.1531 97° East 450 518 22,200 -1,800 Descending New York Center
04:31PM 41.6353 -76.9964 96° East 443 510 19,500 -2,820 Descending New York Center
04:32PM 41.6203 -76.8453 98° East 423 487 16,700 -2,640 Descending New York Center
04:33PM 41.6036 -76.6800 98° East 413 475 14,200 -2,040 Descending New York Center
04:34PM 41.5914 -76.5456 97° East 408 470 12,600 -1,380 Descending New York Center
04:35PM 41.5792 -76.4086 97° East 394 453 11,500 -1,380 Descending New York Center
04:36PM 41.5667 -76.2744 97° East 344 396 9,900 -1,560 Descending New York Center
04:37PM 41.5489 -76.1650 102° East 313 360 8,400 -1,560 Descending New York Center
04:38PM 41.5261 -76.0661 107° East 284 327 6,800 -1,620 Descending New York Center
04:39PM 41.5031 -75.9758 109° East 267 307 5,200 -1,380 Descending New York Center
04:40PM 41.4822 -75.8828 107° East 267 307 4,000 -660 Descending New York Center
04:41PM 41.4586 -75.8006 111° Southeast 255 293 4,000 -240 Level New York Center
04:42PM 41.4283 -75.7264 119° Southeast 239 275 3,600 -900 Descending New York Center
04:43PM 41.3969 -75.6800 132° Southeast 202 232 2,200 -1,080 Descending New York Center
04:44PM 41.3714 -75.6947 203° Southwest 132 152 1,500 -720 Descending New York Center